Location: *
(40.7113°N, 73.7007°W)
Time: 08:42:56
(UTC+00:00)

Daily predictions for brighter satellites

Satellite Brightness Start Highest point End
(mag) Time Altitude Azimuth Time Altitude Azimuth Time Altitude Azimuth
CSL-04 Rocket 4.2 22:23:24 10° S 22:28:43 68° WSW 22:34:01 10° NNW
Cosmos 2322 Rocket 3.5 22:25:06 10° NW 22:30:27 47° WSW 22:35:48 10° S
COSMOS 2428 3.4 22:26:10 10° N 22:31:17 33° ENE 22:36:22 10° ESE
Cosmos 2218 Rocket 4.1 22:26:57 10° S 22:33:05 87° W 22:39:16 10° N
SPOT 3 Rocket 4.1 22:28:27 10° SE 22:33:12 38° ENE 22:37:59 10° N
Cosmos 2333 Rocket 3.5 22:29:47 10° N 22:33:57 20° NE 22:38:07 10° E
Cosmos 1833 4.3 22:29:25 10° SSW 22:35:07 90° SW 22:40:48 10° NNE
Cosmos 1452 Rocket 3.5 22:31:10 10° NNW 22:36:23 62° ENE 22:41:35 10° SSE
Cosmos 2219 4.0 22:31:29 10° SSE 22:36:27 31° ESE 22:41:25 10° NE
Cosmos 1339 Rocket 4.5 22:30:50 10° N 22:37:11 72° E 22:43:22 10° SSE
Aureole 2 Rocket 4.3 22:36:41 10° NNE 22:39:23 17° ENE 22:42:07 10° ESE
FENGYUN 3A 4.4 22:34:52 10° SE 22:39:33 31° ENE 22:44:16 10° N
CORIOLIS 4.3 22:34:15 10° SSE 22:39:38 84° WSW 22:45:06 10° NNW
MTI 3.7 22:37:45 10° NNE 22:40:58 73° ESE 22:44:09 10° S
Cosmos 1727 Rocket 4.0 22:35:25 10° N 22:41:48 76° E 22:48:07 10° SSE
CZ-4 R/B 1.8 22:39:54 10° S 22:44:05 73° WSW 22:48:15 10° NNW
Abrixas 2.5 22:42:35 10° SSW 22:44:34 33° SE 22:46:07 14° E
Iridium 4 Rocket 4.3 22:40:39 10° SSE 22:45:43 36° E 22:51:02 10° NNE
Delta 2 Rocket 4.1 22:42:10 10° WSW 22:45:55 38° S 22:49:17 10° ESE
Cosmos 2098 Rocket 4.1 22:43:42 10° SSE 22:47:48 32° E 22:52:51 10° NNE
Cosmos 2221 2.9 22:43:50 10° SSE 22:47:53 42° E 22:52:00 10° NNE
GP-B 3.1 22:44:07 10° N 22:48:36 86° E 22:53:02 10° S
SKYMED 2 3.6 22:44:44 10° NNE 22:49:01 56° E 22:53:17 10° S
MONITOR-E 4.4 22:46:28 10° SSE 22:49:26 47° ENE 22:52:25 10° N
CZ-4 R/B 4.4 22:45:42 10° SSE 22:49:49 80° ENE 22:53:59 10° N
Cosmos 1743 Rocket 4.0 22:45:54 10° NNW 22:50:16 69° W 22:54:40 10° S
Aureole 2 4.2 22:48:02 10° NNW 22:51:09 66° ENE 22:54:42 10° SSE
Cosmos 44 3.1 22:49:00 10° SSW 22:53:16 58° ESE 22:57:32 10° NE
Cosmos 921 Rocket 3.0 22:49:29 10° NNW 22:53:57 77° ENE 22:58:17 10° SSE
ERS-2 3.0 22:52:54 10° S 22:56:31 54° WSW 23:00:10 10° NNW
Cosmos 2322 3.8 22:53:00 10° NNW 22:58:46 86° WSW 23:04:28 10° SSE
Cosmos 1842 Rocket 4.2 22:54:28 10° SSW 22:58:52 62° W 23:03:18 10° N
EO 1 Del DPAF 3.3 22:55:15 10° NNE 22:59:07 87° WNW 23:02:57 10° SSW
Abrixas rocket 4.1 22:58:35 10° NW 23:01:10 21° N 23:03:10 13° NE
SL-8 R/B 4.5 23:00:27 10° W 23:05:06 46° NNW 23:09:08 13° NE
Cosmos 1726 2.6 23:02:28 10° SSE 23:05:53 37° E 23:09:18 10° NNE
Cosmos 2219 Rocket 2.6 23:03:06 10° N 23:08:21 40° ENE 23:13:35 10° SE
Cosmos 1315 Rocket 3.0 23:05:07 10° NNW 23:09:13 81° W 23:13:19 10° S
Cosmos 1500 Rocket 4.4 23:06:32 10° NNW 23:10:45 53° W 23:14:57 10° S
Cosmos 1048 Rocket 3.9 23:07:03 10° S 23:12:09 75° ESE 23:17:17 10° NNE
Cosmos 158 Rocket 3.9 23:08:14 10° SSW 23:13:17 88° WNW 23:18:32 10° NNE
APEX 2.8 23:12:25 10° SSW 23:15:35 67° WNW 23:18:22 10° NNE
NOAA 12 4.0 23:10:20 10° SSE 23:15:36 72° ENE 23:20:55 10° N
DELTA 2 R/B (1) 4.2 23:11:06 10° W 23:16:29 51° SSW 23:21:07 14° SE
METEOR-M 4.4 23:12:12 10° S 23:17:32 74° WSW 23:22:54 10° NNW
Cosmos 1420 Rocket 4.2 23:13:32 10° NNW 23:18:51 75° WSW 23:24:05 10° S
FREGAT/IRIS 3.8 23:24:03 26° NE 23:24:03 26° NE 23:25:51 10° N
CZ-4C R/B 2.0 23:18:20 10° SSW 23:23:29 81° ESE 23:29:22 10° NE
NOSS 0 Rocket 4.3 23:17:45 10° NNW 23:23:36 43° ENE 23:27:35 19° ESE
Cosmos 44 Rocket 3.4 23:20:57 10° SW 23:25:38 71° WNW 23:30:21 10° NNE
SJ-6B 3.6 23:30:48 30° NE 23:30:48 30° NE 23:33:32 10° N
Resurs 01 Rocket 3.6 23:33:44 14° NNE 23:33:44 14° NNE 23:34:42 10° NNE
Thor Agena Rocket 3.4 23:29:32 10° NNE 23:34:35 62° ESE 23:39:34 10° S
Cosmos 2333 4.3 23:28:54 10° NNW 23:34:39 83° WSW 23:40:24 10° SSE
Sich 1 3.0 23:31:40 10° N 23:36:00 57° E 23:40:19 10° SSE
PSLV R/B 4.1 23:34:05 10° SW 23:36:40 32° SSE 23:36:40 32° SSE
COSMO-SKYMED 1 3.9 23:32:55 10° N 23:37:01 41° WNW 23:41:05 10° SW
Cosmos 1535 Rocket 4.4 23:35:49 10° S 23:41:57 86° E 23:48:05 10° N
In-Cosmos 22 Rocket 4.3 23:37:14 10° N 23:42:52 54° ENE 23:48:28 10° SSE
Cosmos 2237 Rocket 2.6 23:38:42 10° N 23:44:06 42° ENE 23:45:24 37° E
H-2A R/B 2.6 23:43:55 33° SSE 23:45:31 68° ENE 23:49:25 10° N
Atlas Centaur 2 4.1 23:43:03 10° SW 23:45:40 15° SSW 23:48:36 10° SSE
USA 267 3.9 23:45:00 31° ESE 23:46:20 34° SE 23:52:07 10° S
Cosmos 1331 Rocket 4.1 23:42:35 10° N 23:47:41 51° ENE 23:48:57 41° ESE
Gbstr 26 Del rocket 3.6 23:42:35 10° NW 23:47:44 89° NE 23:50:40 33° SE
Cosmos 1805 Rocket 4.0 23:45:24 10° NNW 23:49:45 64° W 23:54:07 10° S
Cosmos 2227 Rocket 2.4 23:45:30 10° S 23:50:51 46° ESE 23:52:07 40° ENE
